[[{"header":{"parameterUnit":"m.s-1","parameterCategory":1,"la1":30.2991,"la2":30.254,"lo1":-89.0895,"lo2":-89.0444,"dy":0.0017,"dx":0.0017,"nx":28,"ny":28,"refTime":"2024-07-24T03:00:00:Z","depth":0,"parameterNumber":2,"parameterNumberName":"U-component_of_WINDS"},"data":[0,0,0,0,0,0,0,0,0,0,0,0,0,0,0,0,0,0,0,0,0,0,0,0,0,0,0,0,0,0,0,0,0,0,0,0,0,0,0,0,0,0,0,0,0,0,0,0,0,0,0,0,0,0,0,0,0,0,-0.449,-0.449,0,-0.45,-0.4501,-0.4501,-0.4498,-0.4498,-0.4498,-0.4497,-0.451,-0.451,-0.4511,0,0,0,0,0,0,0,0,0,0,0,0,0,-0.4467,-0.4467,-0.449,-0.449,-0.449,-0.45,-0.4501,-0.4501,-0.4498,-0.4498,-0.4498,-0.4497,-0.4509,-0.451,-0.4511,0,0,0,0,0,0,0,0,0,0,0,0,0,-0.4477,-0.4467,-0.4489,-0.449,-0.449,-0.45,-0.4501,-0.4501,-0.4498,-0.4498,-0.4498,-0.4497,-0.4509,-0.451,-0.4511,-0.4522,0,0,-0.4513,-0.4514,0,0,0,0,0,0,0,0,-0.4477,-0.4478,-0.449,-0.449,-0.449,-0.4497,-0.4497,-0.4508,-0.4498,-0.4495,-0.4497,-0.4497,-0.4506,-0.4507,-0.451,-0.4523,-0.4523,-0.4513,-0.4514,-0.4514,-0.4514,0,0,0,0,0,0,0,-0.4476,-0.4478,-0.4494,-0.449,-0.449,-0.4489,-0.4491,-0.4499,-0.4502,-0.4495,-0.4495,-0.4496,-0.4506,-0.4509,-0.451,-0.4523,-0.4513,-0.4514,-0.4514,-0.4515,-0.4545,-0.4545,0,0,0,0,0,0,-0.4475,-0.4477,-0.4493,-0.4494,-0.4482,-0.449,-0.4491,-0.4495,-0.4502,-0.4503,-0.4497,-0.4496,-0.4508,-0.4509,-0.451,-0.4524,-0.4514,-0.4515,-0.4515,-0.4545,-0.4545,-0.4546,0,0,0,0,0,0,-0.4474,-0.4476,-0.4493,-0.4485,-0.4488,-0.4491,-0.4495,-0.4496,-0.4499,-0.4503,-0.4504,-0.4499,-0.4508,-0.4509,-0.4519,-0.4524,-0.4515,-0.4516,-0.4544,-0.4545,-0.4545,-0.4551,0,0,0,0,0,0,-0.4474,-0.4476,-0.4481,-0.4486,-0.4488,-0.4501,-0.4496,-0.4496,-0.45,-0.45,-0.4506,-0.4506,-0.4507,-0.4518,-0.452,-0.4525,-0.4516,-0.4544,-0.4545,-0.4545,-0.455,-0.4551,-0.4552,0,0,0,0,0,-0.4473,-0.4482,-0.4481,-0.4483,-0.4493,-0.4502,-0.4503,-0.4504,-0.45,-0.4505,-0.4507,-0.4506,-0.4523,-0.4519,-0.4521,-0.4527,-0.4544,-0.4544,-0.4545,-0.455,-0.4551,-0.4552,0,0,0,0,0,0,-0.4478,-0.4483,-0.4482,-0.4492,-0.4497,-0.4501,-0.4507,-0.4506,-0.4511,-0.4511,-0.4512,-0.4513,-0.4523,-0.4526,-0.4521,-0.4537,-0.4533,-0.4534,-0.4536,-0.4537,-0.4538,-0.4538,-0.4517,0,0,0,0,0,-0.4481,-0.4487,-0.449,-0.45,-0.4502,-0.4504,-0.4508,-0.4508,-0.4512,-0.4514,-0.4518,-0.4522,-0.4528,-0.4533,-0.4539,-0.455,-0.4551,-0.4555,-0.4556,-0.4557,-0.4558,-0.4564,-0.4566,-0.4548,-0.4548,-0.4548,0,0,-0.4486,-0.4489,-0.4493,-0.4501,-0.4504,-0.4511,-0.4506,-0.4513,-0.4518,-0.4515,-0.4525,-0.4527,-0.4532,-0.4543,-0.4547,-0.4545,-0.4563,-0.4558,-0.4559,-0.456,-0.4565,-0.4567,-0.4568,-0.4549,-0.4548,-0.4548,0,0,-0.4499,-0.4502,-0.451,-0.4513,-0.4517,-0.4518,-0.452,-0.4525,-0.4526,-0.4535,-0.4534,-0.4539,-0.455,-0.4554,-0.4557,-0.457,-0.4569,-0.4572,-0.4578,-0.4584,-0.4585,-0.4586,-0.4591,-0.4593,-0.4573,-0.4573,-0.4573,0,-0.4505,-0.4514,-0.4514,-0.4521,-0.4524,-0.4522,-0.453,-0.4533,-0.4539,-0.4542,-0.4539,-0.4552,-0.4556,-0.4567,-0.457,-0.4572,-0.4574,-0.4571,-0.4585,-0.4586,-0.4587,-0.4592,-0.4593,-0.4573,-0.4573,-0.4573,-0.4573,0,-0.4521,-0.4528,-0.4534,-0.4539,-0.4543,-0.4551,-0.4552,-0.4555,-0.4555,-0.4556,-0.4565,-0.4569,-0.4575,-0.4578,-0.4578,-0.4589,-0.4587,-0.4584,-0.458,-0.4589,-0.4593,-0.4595,-0.4574,-0.4573,-0.4573,-0.4573,0,0,-0.454,-0.4544,-0.4546,-0.4548,-0.4553,-0.4558,-0.4565,-0.457,-0.4574,-0.4578,-0.4584,-0.4593,-0.459,-0.4594,-0.4594,-0.4599,-0.4608,-0.4595,-0.4595,-0.4598,-0.462,-0.4623,-0.4625,-0.4607,-0.4607,-0.4608,-0.462,0,-0.4553,-0.4565,-0.4564,-0.4576,-0.4582,-0.4579,-0.4585,-0.4588,-0.4589,-0.4594,-0.4595,-0.4602,-0.4597,-0.46,-0.4604,-0.4606,-0.4613,-0.4605,-0.4613,-0.4613,-0.4612,-0.4627,-0.463,-0.4641,-0.4622,-0.4622,-0.4622,0,-0.4571,-0.4575,-0.4587,-0.4589,-0.4592,-0.4597,-0.4602,-0.4607,-0.461,-0.4611,-0.4614,-0.4613,-0.462,-0.4614,-0.4624,-0.4619,-0.4622,-0.4623,-0.4623,-0.4625,-0.4619,-0.4629,-0.4645,-0.4647,-0.4625,-0.4624,-0.4624,0,-0.4583,-0.4592,-0.46,-0.4602,-0.4605,-0.4609,-0.461,-0.4613,-0.4616,-0.462,-0.4623,-0.4628,-0.463,-0.4634,-0.4634,-0.463,-0.4644,-0.4639,-0.4645,-0.4645,-0.4649,-0.4649,-0.4666,-0.4649,-0.4649,-0.4649,-0.4649,0,-0.4599,-0.4607,-0.4605,-0.461,-0.4618,-0.4617,-0.4625,-0.4626,-0.4628,-0.4634,-0.4631,-0.4636,-0.4636,-0.4641,-0.4641,-0.4648,-0.465,-0.465,-0.465,-0.4651,-0.4651,-0.4654,-0.4653,-0.465,-0.465,-0.465,-0.465,0,-0.4615,-0.4614,-0.4623,-0.4624,-0.4625,-0.4631,-0.4632,-0.4637,-0.4637,-0.4644,-0.4645,-0.4646,-0.4651,-0.4651,-0.4658,-0.4658,-0.4668,-0.4666,-0.4666,-0.4667,-0.4673,-0.4672,-0.4693,-0.4696,-0.4677,-0.4677,-0.4677,0,-0.4625,-0.4631,-0.4633,-0.4636,-0.4637,-0.4642,-0.4645,-0.4643,-0.4647,-0.465,-0.4654,-0.466,-0.4664,-0.4673,-0.4674,-0.4678,-0.4678,-0.4685,-0.4679,-0.4679,-0.4678,-0.4678,-0.4679,-0.4686,-0.4686,-0.4686,-0.4687,0,-0.4644,-0.4643,-0.4647,-0.4651,-0.4654,-0.4657,-0.466,-0.4663,-0.4661,-0.4665,-0.467,-0.4673,-0.4679,-0.4685,-0.4689,-0.4691,-0.4689,-0.4688,-0.469,-0.4691,-0.4691,-0.4691,-0.467,-0.4688,-0.4688,-0.4688,-0.4688,-0.4688,-0.4658,-0.4662,-0.4664,-0.4669,-0.467,-0.4673,-0.4677,-0.4677,-0.4681,-0.4686,-0.4684,-0.469,-0.4693,-0.4698,-0.47,-0.4704,-0.4702,-0.4705,-0.4705,-0.4706,-0.4707,-0.4689,-0.4705,-0.4705,-0.4705,-0.4705,-0.4705,0,-0.4677,-0.4677,-0.4681,-0.4685,-0.4688,-0.4685,-0.4687,-0.4691,-0.4696,-0.4698,-0.4701,-0.4707,-0.4712,-0.4712,-0.4717,-0.472,-0.4719,-0.4721,-0.4722,-0.4722,-0.4709,-0.4707,-0.4722,-0.4722,-0.4722,-0.4722,-0.4722,-0.4722,-0.4687,-0.4695,-0.4694,-0.4702,-0.4702,-0.4707,-0.4709,-0.4711,-0.4713,-0.4719,-0.4723,-0.4723,-0.4724,-0.4728,-0.4732,-0.4732,-0.4734,-0.4737,-0.4737,-0.4725,-0.4723,-0.4721,-0.472,-0.4737,-0.4737,-0.4749,-0.475,-0.475]},{"header":{"parameterUnit":"m.s-1","parameterCategory":1,"la1":30.2991,"la2":30.254,"lo1":-89.0895,"lo2":-89.0444,"dy":0.0017,"dx":0.0017,"nx":28,"ny":28,"refTime":"2024-07-24T03:00:00:Z","depth":0,"parameterNumber":3,"parameterNumberName":"V-component_of_WINDS"},"data":[0,0,0,0,0,0,0,0,0,0,0,0,0,0,0,0,0,0,0,0,0,0,0,0,0,0,0,0,0,0,0,0,0,0,0,0,0,0,0,0,0,0,0,0,0,0,0,0,0,0,0,0,0,0,0,0,0,0,0.2582,0.2581,0,0.2534,0.2533,0.2532,0.2471,0.247,0.2469,0.2469,0.242,0.2419,0.2419,0,0,0,0,0,0,0,0,0,0,0,0,0,0.262,0.262,0.2582,0.2581,0.258,0.2534,0.2533,0.2532,0.2472,0.247,0.2469,0.2468,0.242,0.2419,0.2419,0,0,0,0,0,0,0,0,0,0,0,0,0,0.2591,0.262,0.2582,0.2544,0.2541,0.2534,0.2533,0.2532,0.2472,0.247,0.2469,0.2468,0.242,0.2419,0.2419,0.2445,0,0,0.2417,0.2417,0,0,0,0,0,0,0,0,0.2593,0.259,0.255,0.2547,0.2543,0.2507,0.2529,0.2503,0.2472,0.2498,0.2469,0.2467,0.245,0.2447,0.2441,0.2442,0.244,0.2417,0.2417,0.2416,0.2416,0,0,0,0,0,0,0,0.2595,0.2592,0.2563,0.255,0.2545,0.253,0.2524,0.2523,0.2483,0.2496,0.2491,0.2486,0.2448,0.2442,0.2439,0.244,0.2417,0.2417,0.2416,0.2416,0.2459,0.246,0,0,0,0,0,0,0.2603,0.2594,0.2564,0.2561,0.2565,0.2531,0.2524,0.252,0.2483,0.2476,0.2488,0.2484,0.2443,0.244,0.2438,0.2465,0.2416,0.2416,0.2416,0.2457,0.2459,0.2461,0,0,0,0,0,0,0.2604,0.2601,0.2566,0.2576,0.2571,0.2531,0.2527,0.252,0.2514,0.2477,0.2469,0.2489,0.2442,0.2438,0.2443,0.2462,0.2416,0.2415,0.2456,0.2458,0.246,0.252,0,0,0,0,0,0,0.2605,0.2601,0.2611,0.2577,0.257,0.2573,0.2528,0.252,0.2513,0.2507,0.2476,0.2469,0.2441,0.2444,0.2443,0.2461,0.2415,0.2454,0.2457,0.2459,0.2516,0.2524,0.2531,0,0,0,0,0,0.2607,0.263,0.2612,0.2608,0.2581,0.2574,0.257,0.2537,0.2515,0.2524,0.25,0.247,0.246,0.2445,0.2443,0.2461,0.2452,0.2456,0.2459,0.2513,0.2523,0.2531,0,0,0,0,0,0,0.2668,0.2625,0.2604,0.2617,0.26,0.2564,0.2574,0.2548,0.2537,0.2532,0.2491,0.2484,0.2494,0.2478,0.2462,0.2484,0.2452,0.2455,0.2494,0.2503,0.251,0.2514,0.2414,0,0,0,0,0,0.2683,0.268,0.2643,0.2658,0.265,0.2614,0.261,0.2585,0.2565,0.2558,0.2534,0.2516,0.2508,0.2505,0.2496,0.2514,0.2506,0.2525,0.2532,0.2538,0.2541,0.2549,0.2557,0.2472,0.2472,0.2472,0,0,0.2714,0.269,0.2691,0.267,0.2653,0.2652,0.2608,0.2608,0.2607,0.2558,0.2561,0.2543,0.252,0.2531,0.2535,0.2518,0.2563,0.2542,0.2548,0.2547,0.2553,0.2561,0.2568,0.2474,0.2474,0.2473,0,0,0.2769,0.2751,0.2761,0.2746,0.2721,0.2697,0.2699,0.2667,0.2653,0.2655,0.2618,0.2616,0.2604,0.2589,0.258,0.2629,0.2601,0.2627,0.2666,0.2673,0.268,0.2686,0.2703,0.2709,0.263,0.2631,0.2631,0,0.2811,0.2807,0.277,0.2772,0.2764,0.2719,0.2729,0.2715,0.269,0.2685,0.2666,0.265,0.2632,0.2638,0.265,0.2644,0.2646,0.2631,0.2682,0.2687,0.2692,0.2708,0.2714,0.2634,0.2634,0.2633,0.2633,0,0.2859,0.2857,0.2868,0.2843,0.2836,0.2842,0.2806,0.2803,0.2779,0.2757,0.2759,0.2736,0.2721,0.2721,0.2697,0.2724,0.2714,0.269,0.2657,0.2704,0.2718,0.2724,0.2639,0.2637,0.2636,0.2636,0,0,0.2952,0.2907,0.2911,0.2899,0.2869,0.2866,0.287,0.2856,0.2854,0.2837,0.2839,0.283,0.2807,0.2796,0.2771,0.2778,0.2817,0.2752,0.2751,0.2765,0.2844,0.2863,0.2871,0.2799,0.28,0.2801,0.2846,0,0.3001,0.3005,0.2972,0.2985,0.2982,0.2939,0.2943,0.2924,0.2903,0.2897,0.2874,0.2868,0.2838,0.2831,0.2836,0.2812,0.2833,0.2808,0.28,0.28,0.2807,0.2878,0.2898,0.2943,0.2852,0.2853,0.2853,0,0.306,0.3046,0.3059,0.3027,0.3024,0.3028,0.3012,0.3007,0.2985,0.2969,0.2957,0.2928,0.2929,0.2898,0.2899,0.2882,0.2877,0.2865,0.2865,0.2863,0.283,0.2878,0.2956,0.2963,0.2862,0.2861,0.286,0,0.3126,0.3111,0.3116,0.3107,0.3071,0.3074,0.3059,0.3035,0.3028,0.3014,0.3009,0.2995,0.2987,0.2977,0.2944,0.2925,0.2949,0.2915,0.2935,0.2936,0.2943,0.2943,0.3021,0.294,0.294,0.2939,0.2939,0,0.3185,0.3194,0.3145,0.3149,0.3158,0.3119,0.3129,0.311,0.3089,0.3088,0.305,0.3049,0.3006,0.3001,0.2975,0.298,0.2977,0.2964,0.2957,0.2967,0.2969,0.2963,0.2959,0.2941,0.2941,0.294,0.294,0,0.3261,0.3228,0.3231,0.3196,0.3187,0.3195,0.3165,0.3166,0.3142,0.3141,0.3138,0.3101,0.3093,0.3059,0.3043,0.3026,0.3038,0.3025,0.3046,0.3041,0.3063,0.3062,0.314,0.3149,0.3063,0.3064,0.3064,0,0.33,0.3306,0.3271,0.3268,0.3254,0.3248,0.3241,0.3203,0.3197,0.3172,0.3176,0.3165,0.3153,0.3142,0.3113,0.31,0.3086,0.3115,0.3084,0.3094,0.3086,0.3086,0.3087,0.3122,0.3123,0.3124,0.3124,0,0.3374,0.3357,0.3348,0.3333,0.3325,0.3312,0.3296,0.3295,0.3253,0.3248,0.3239,0.323,0.3213,0.3202,0.3184,0.3168,0.3139,0.3134,0.3138,0.3149,0.316,0.3154,0.3064,0.3133,0.3132,0.3131,0.3131,0.313,0.3432,0.3436,0.3411,0.3402,0.3386,0.3372,0.3372,0.3348,0.3339,0.3322,0.33,0.3294,0.3271,0.3244,0.323,0.3224,0.3208,0.3214,0.3215,0.3217,0.3222,0.3161,0.322,0.322,0.322,0.322,0.3219,0,0.3504,0.3486,0.3478,0.3457,0.3449,0.3423,0.3404,0.3399,0.3394,0.3375,0.3364,0.3353,0.3342,0.3313,0.3298,0.3299,0.3286,0.3297,0.3296,0.3293,0.3237,0.3235,0.3308,0.3308,0.3308,0.3308,0.3308,0.3308,0.354,0.3544,0.3524,0.352,0.3501,0.3495,0.3486,0.3473,0.3457,0.3447,0.3437,0.3418,0.3394,0.3378,0.3366,0.3358,0.3354,0.337,0.3357,0.3305,0.3297,0.3289,0.3287,0.3369,0.3369,0.3413,0.3413,0.3414]}]]